GW5308 Weather Reports


time (UTC)temp
C
wind
direction
speed
KPH
gust
KPH
rain 1hr
cm
rain 24hr
cm
rain mn
cm
humidity
%
barometer
mb
20260505014549 16 0 0.0 0.0 0.00 0.00 0.00 86 1015.7
20260505014013 16 0 0.0 0.0 0.00 0.00 0.00 86 1015.7
20260505013513 16 0 0.0 0.0 0.00 0.00 0.00 85 1015.7
20260505013036 16 0 0.0 0.0 0.00 0.00 0.00 84 1015.6
20260505012516 16 0 0.0 0.0 0.00 0.00 0.00 82 1015.4
20260505012017 17 0 0.0 0.0 0.00 0.00 0.00 81 1015.4
20260505011533 17 0 0.0 0.0 0.00 0.00 0.00 81 1015.3
20260505011019 17 0 0.0 0.0 0.00 0.00 0.00 80 1015.4
20260505010515 17 0 0.0 0.0 0.00 0.00 0.00 78 1015.3
20260505010034 18 0 0.0 0.0 0.00 0.00 0.00 77 1015.3
20260505005514 18 0 0.0 0.0 0.00 0.00 0.00 75 1015.2
20260505005014 18 0 0.0 0.0 0.00 0.00 0.00 74 1015.2
20260505004536 19 0 0.0 0.0 0.00 0.00 0.00 74 1015.3
20260505004013 19 0 0.0 0.0 0.00 0.00 0.00 73 1015.1
20260505003514 20 0 0.0 0.0 0.00 0.00 0.00 72 1015.1
20260505003033 20 0 0.0 0.0 0.00 0.00 0.00 70 1015.2
20260505002516 20 0 0.0 0.0 0.00 0.00 0.00 69 1015.1
20260505002017 21 0 0.0 0.0 0.00 0.00 0.00 68 1015.0
20260505001534 21 0 0.0 0.0 0.00 0.00 0.00 67 1014.9
20260505001016 21 0 0.0 1.6 0.00 0.00 0.00 67 1014.8
20260505000516 21 0 0.0 1.6 0.00 0.00 0.00 66 1014.7
20260505000040 21 26 0.0 1.6 0.00 0.00 0.00 66 1014.7
20260504235515 21 0 0.0 6.4 0.00 0.00 0.00 65 1014.8
20260504235015 22 48 1.6 6.4 0.00 0.00 0.00 64 1014.6
20260504234538 22 286 1.6 6.4 0.00 0.00 0.00 64 1014.5
20260504234015 22 298 0.0 4.8 0.00 0.00 0.00 63 1014.5
20260504233515 22 315 0.0 4.8 0.00 0.00 0.00 63 1014.4
20260504233034 22 280 1.6 4.8 0.00 0.00 0.00 63 1014.4
20260504232516 22 323 0.0 6.4 0.00 0.00 0.00 63 1014.4
20260504232016 22 301 1.6 11.3 0.00 0.00 0.00 62 1014.4
20260504231537 22 354 0.0 11.3 0.00 0.00 0.00 62 1014.4
20260504231015 23 346 1.6 6.4 0.00 0.00 0.00 62 1014.4
20260504230515 23 306 0.0 8.0 0.00 0.00 0.00 62 1014.4
20260504230034 23 27 1.6 8.0 0.00 0.00 0.00 61 1014.5
20260504225516 23 23 1.6 9.7 0.00 0.00 0.00 61 1014.4
20260504225016 23 8 3.2 9.7 0.00 0.00 0.00 60 1014.4
20260504224531 23 326 1.6 9.7 0.00 0.00 0.00 60 1014.4
20260504224016 23 155 1.6 9.7 0.00 0.00 0.00 60 1014.5
20260504223514 24 39 3.2 9.7 0.00 0.00 0.00 59 1014.5
20260504223042 24 298 1.6 9.7 0.00 0.00 0.00 59 1014.5
20260504222518 24 30 3.2 8.0 0.00 0.00 0.00 58 1014.4
20260504222019 25 307 3.2 17.7 0.00 0.00 0.00 58 1014.4
20260504221536 25 4 3.2 17.7 0.00 0.00 0.00 58 1014.5
20260504221015 25 360 3.2 9.7 0.00 0.00 0.00 58 1014.5
20260504220515 25 338 3.2 9.7 0.00 0.00 0.00 58 1014.4
20260504220031 25 12 3.2 11.3 0.00 0.00 0.00 58 1014.5
20260504215517 25 26 4.8 11.3 0.00 0.00 0.00 57 1014.4
20260504215017 25 6 6.4 11.3 0.00 0.00 0.00 56 1014.5
20260504214534 26 359 3.2 9.7 0.00 0.00 0.00 55 1014.6
20260504214014 25 172 1.6 8.0 0.00 0.00 0.00 57 1014.5
20260504213514 26 18 3.2 9.7 0.00 0.00 0.00 56 1014.5
20260504213052 26 114 3.2 9.7 0.00 0.00 0.00 55 1014.5
20260504212520 26 330 1.6 8.0 0.00 0.00 0.00 55 1014.6
20260504212015 26 340 1.6 8.0 0.00 0.00 0.00 55 1014.4
20260504211537 26 331 1.6 8.0 0.00 0.00 0.00 56 1014.4
20260504211016 26 34 3.2 8.0 0.00 0.00 0.00 55 1014.4
20260504210513 26 233 1.6 11.3 0.00 0.00 0.00 55 1014.5
20260504210034 26 340 1.6 11.3 0.00 0.00 0.00 56 1014.4
20260504205513 26 354 3.2 12.9 0.00 0.00 0.00 55 1014.5
20260504205015 26 27 1.6 12.9 0.00 0.00 0.00 56 1014.4
20260504204534 26 356 1.6 11.3 0.00 0.00 0.00 56 1014.4
20260504204013 26 0 3.2 11.3 0.00 0.00 0.00 55 1014.3
20260504203514 26 278 1.6 12.9 0.00 0.00 0.00 57 1014.3
20260504203035 26 8 1.6 12.9 0.00 0.00 0.00 56 1014.4
20260504202516 26 313 3.2 12.9 0.00 0.00 0.00 56 1014.6
20260504202014 26 318 3.2 12.9 0.00 0.00 0.00 55 1014.4
20260504201536 26 8 3.2 11.3 0.00 0.00 0.00 56 1014.5
20260504201018 26 27 3.2 11.3 0.00 0.00 0.00 56 1014.7
20260504200516 26 311 6.4 11.3 0.00 0.00 0.00 54 1014.7
20260504200034 27 65 3.2 11.3 0.00 0.00 0.00 54 1014.8
20260504195514 27 295 1.6 8.0 0.00 0.00 0.00 53 1014.7
20260504195013 27 32 1.6 9.7 0.00 0.00 0.00 53 1014.9
20260504194542 27 248 1.6 9.7 0.00 0.00 0.00 54 1014.9
20260504194018 27 48 3.2 9.7 0.00 0.00 0.00 54 1014.9
20260504193514 27 258 1.6 9.7 0.00 0.00 0.00 55 1015.0
20260504193042 26 330 3.2 9.7 0.00 0.00 0.00 56 1015.1
20260504192515 26 17 3.2 9.7 0.00 0.00 0.00 53 1015.2
20260504192014 27 318 3.2 8.0 0.00 0.00 0.00 54 1015.2
20260504191536 26 25 1.6 8.0 0.00 0.00 0.00 53 1015.3
20260504191017 26 149 1.6 8.0 0.00 0.00 0.00 53 1015.3
20260504190514 26 288 1.6 8.0 0.00 0.00 0.00 54 1015.5
20260504190034 27 281 1.6 9.7 0.00 0.00 0.00 54 1015.5
20260504185520 26 192 1.6 9.7 0.00 0.00 0.00 56 1015.6
20260504185017 26 3 3.2 11.3 0.00 0.00 0.00 55 1015.8
20260504184535 26 6 1.6 11.3 0.00 0.00 0.00 57 1015.8
20260504184017 26 355 1.6 14.5 0.00 0.00 0.00 55 1015.7
20260504183514 26 43 3.2 14.5 0.00 0.00 0.00 53 1015.9
20260504183031 27 68 3.2 14.5 0.00 0.00 0.00 52 1015.8
20260504182519 27 144 1.6 8.0 0.00 0.00 0.00 52 1015.9
20260504182016 27 162 0.0 8.0 0.00 0.00 0.00 53 1015.9
20260504181533 27 11 1.6 11.3 0.00 0.00 0.00 54 1016.0
20260504181016 27 344 3.2 11.3 0.00 0.00 0.00 52 1015.8
20260504180514 27 285 3.2 9.7 0.00 0.00 0.00 52 1015.9
20260504180037 27 56 1.6 8.0 0.00 0.00 0.00 53 1016.0
20260504175514 27 259 1.6 11.3 0.00 0.00 0.00 54 1015.9
20260504175016 27 22 1.6 11.3 0.00 0.00 0.00 53 1016.1
20260504174534 27 176 0.0 8.0 0.00 0.00 0.00 53 1016.1
20260504174014 27 103 3.2 9.7 0.00 0.00 0.00 55 1016.2
20260504173514 27 18 3.2 9.7 0.00 0.00 0.00 53 1016.3
20260504173043 27 351 1.6 6.4 0.00 0.00 0.00 52 1016.3
20260504172517 27 186 1.6 12.9 0.00 0.00 0.00 53 1016.3
20260504172015 26 46 3.2 12.9 0.00 0.00 0.00 57 1016.3
20260504171535 26 18 3.2 8.0 0.00 0.00 0.00 56 1016.4
20260504171018 26 158 1.6 6.4 0.00 0.00 0.00 59 1016.3
20260504170516 25 321 1.6 6.4 0.00 0.00 0.00 55 1016.4
20260504151016 23 19 1.6 8.0 0.00 0.00 0.00 66 1017.3
20260504150514 23 26 0.0 4.8 0.00 0.00 0.00 67 1017.3
20260504141016 23 64 0.0 8.0 0.00 0.00 0.00 69 1017.0
20260504140516 23 149 1.6 9.7 0.00 0.00 0.00 68 1017.0
20260504130516 22 286 0.0 3.2 0.00 0.00 0.00 72 1016.8
20260504110514 12 0 0.0 0.0 0.00 0.00 0.00 100 1015.8
20260504100513 12 0 0.0 0.0 0.00 0.00 0.00 100 1015.5
20260504081534 13 0 0.0 0.0 0.00 0.00 0.00 99 1015.8
20260504081014 13 0 0.0 0.0 0.00 0.00 0.00 99 1015.8
20260504080514 13 0 0.0 0.0 0.00 0.00 0.00 99 1015.8
20260504050516 15 0 0.0 0.0 0.00 0.00 0.00 95 1016.5
20260504045513 15 0 0.0 0.0 0.00 0.00 0.00 95 1016.6
20260504045020 15 0 0.0 0.0 0.00 0.00 0.00 94 1016.6
20260504044541 16 0 0.0 0.0 0.00 0.00 0.00 94 1016.8
20260504044013 16 0 0.0 0.0 0.00 0.00 0.00 94 1016.7
20260504043514 16 0 0.0 0.0 0.00 0.00 0.00 93 1016.7
20260504043035 16 0 0.0 0.0 0.00 0.00 0.00 93 1016.7
20260504042513 16 0 0.0 0.0 0.00 0.00 0.00 92 1016.8
20260504042016 16 0 0.0 0.0 0.00 0.00 0.00 91 1016.7
20260504041533 16 0 0.0 0.0 0.00 0.00 0.00 91 1016.7
20260504041016 16 0 0.0 0.0 0.00 0.00 0.00 90 1016.7
20260504040519 16 0 0.0 0.0 0.00 0.00 0.00 91 1016.7
20260504040033 16 0 0.0 0.0 0.00 0.00 0.00 90 1016.8
20260504035516 16 0 0.0 0.0 0.00 0.00 0.00 90 1016.9
20260504035015 17 0 0.0 0.0 0.00 0.00 0.00 89 1016.7
20260504034539 17 0 0.0 0.0 0.00 0.00 0.00 89 1016.8
20260504034015 17 0 0.0 0.0 0.00 0.00 0.00 89 1016.7
20260504033515 17 0 0.0 0.0 0.00 0.00 0.00 88 1016.9
20260504033048 17 0 0.0 0.0 0.00 0.00 0.00 88 1016.8
20260504032513 17 0 0.0 0.0 0.00 0.00 0.00 87 1016.8
20260504032017 17 0 0.0 0.0 0.00 0.00 0.00 87 1016.8
20260504031534 17 0 0.0 0.0 0.00 0.00 0.00 87 1016.8
20260504031016 17 0 0.0 0.0 0.00 0.00 0.00 86 1016.7
20260504030515 17 0 0.0 0.0 0.00 0.00 0.00 85 1016.8
20260504030031 17 0 0.0 0.0 0.00 0.00 0.00 85 1016.8
20260504025516 17 0 0.0 0.0 0.00 0.03 0.00 85 1016.9
20260504025014 18 0 0.0 0.0 0.00 0.03 0.00 84 1016.9
20260504024535 18 0 0.0 0.0 0.00 0.03 0.00 84 1016.9
20260504024016 18 0 0.0 0.0 0.00 0.03 0.00 83 1016.9
20260504023516 18 0 0.0 0.0 0.00 0.03 0.00 83 1016.9
20260504023034 18 0 0.0 0.0 0.00 0.03 0.00 83 1016.8
20260504022514 18 0 0.0 0.0 0.00 0.03 0.00 83 1016.8
20260504022013 18 0 0.0 1.6 0.00 0.03 0.00 82 1016.9
20260504021535 18 0 0.0 3.2 0.00 0.03 0.00 82 1016.8
20260504021013 18 0 0.0 3.2 0.00 0.03 0.00 81 1016.6
20260504020515 18 0 0.0 4.8 0.00 0.03 0.00 81 1016.6
20260504020034 18 0 0.0 4.8 0.00 0.03 0.00 81 1016.5
20260504015515 18 0 0.0 3.2 0.00 0.05 0.00 80 1016.5
20260504015015 18 342 0.0 1.6 0.00 0.05 0.00 80 1016.5